Temp
-5 -5 -5 -5 -5 -5 -4 -4 -4 -3 -2 -2 -2 -0 -0 -1 -1 -0 0 1 2 2 3 3 4 4 4 5 5 4 5 5 6 6 6 6 6 6 6 5 6 5 5 5 5
-6 -6 -6 -5 -5 -5 -5 -5 -4 -4 -4 -2 -2 -2 -1 -1 -0 -1 -0 0 1 2 2 3 3 3 4 4 4 4 4 5 6 6 6 5 6 6 6 6 6 6 6 6 6
-6 -6 -6 -6 -6 -6 -6 -5 -5 -5 -5 -4 -2 -2 -1 -1 -1 -1 -1 -0 0 1 1 2 2 3 3 3 4 4 4 4 5 5 5 5 5 5 6 6 6 5 5 6 6
-6 -6 -7 -7 -6 -6 -6 -6 -6 -5 -5 -5 -4 -2 -3 -1 -1 -1 -1 -1 -0 0 1 1 2 2 3 3 3 3 4 4 4 4 4 4 5 5 5 5 5 5 6 6 6
-7 -6 -7 -6 -6 -6 -6 -6 -6 -6 -5 -5 -4 -3 -3 -2 -2 -1 -1 -1 -0 -0 0 1 1 2 2 2 3 3 3 3 3 3 4 3 4 4 5 5 5 5 5 6 6
-7 -6 -6 -6 -6 -6 -6 -6 -6 -6 -6 -6 -5 -4 -4 -3 -2 -2 -2 -1 -1 -0 -0 0 1 1 1 2 2 2 3 3 3 3 3 3 3 4 4 5 4 5 5 5 5
-7 -7 -7 -6 -6 -7 -7 -6 -6 -6 -6 -6 -5 -6 -4 -3 -3 -3 -2 -1 -1 -1 -0 0 0 1 1 1 2 2 2 2 2 3 2 3 3 3 3 2 3 3 3 4 4
-6 -7 -7 -7 -7 -7 -7 -7 -7 -6 -6 -6 -6 -4 -4 -3 -3 -3 -2 -1 -1 -1 -1 -0 0 0 1 1 1 2 2 1 2 2 2 2 2 2 1 2 3 3 3 3 3
-6 -7 -7 -7 -7 -7 -7 -7 -7 -6 -6 -6 -5 -4 -4 -3 -4 -2 -2 -2 -2 -1 -1 -0 0 0 1 1 1 1 1 2 1 1 1 1 2 1 2 2 3 3 3 3 3
-7 -7 -7 -7 -7 -7 -7 -7 -7 -6 -6 -6 -6 -5 -4 -4 -3 -3 -3 -2 -2 -1 -1 -1 -0 0 0 0 -0 1 1 1 0 -0 1 1 2 1 1 2 2 2 2 1 1
-6 -7 -7 -7 -7 -7 -7 -7 -6 -7 -7 -6 -5 -5 -4 -4 -4 -3 -3 -2 -2 -2 -1 -1 -0 -0 0 0 0 -0 -0 -0 -0 -1 1 0 1 1 1 1 1 1 0 0 -0
-7 -7 -7 -7 -7 -7 -7 -7 -6 -7 -7 -6 -6 -5 -4 -4 -3 -4 -4 -3 -2 -2 -1 -1 -0 -0 -0 -1 -1 -1 -1 -1 -1 -2 -2 -0 2 1 1 0 -0 -0 -0 -1 -1
-7 -7 -8 -7 -7 -7 -7 -7 -7 -7 -6 -6 -5 -5 -5 -5 -4 -4 -3 -3 -3 -2 -1 -1 -1 -1 -1 -1 -1 -1 -1 -1 -2 -2 -2 -1 -0 0 0 -1 -1 -1 -1 -1 -2
-7 -7 -7 -7 -7 -6 -7 -7 -7 -6 -6 -6 -5 -5 -4 -4 -4 -4 -3 -3 -2 -2 -2 -2 -1 -2 -2 -2 -2 -1 -2 -2 -2 -4 -3 -3 -1 -1 -1 -2 -2 -2 -2 -2 -2
-6 -6 -6 -6 -6 -6 -6 -6 -6 -5 -5 -6 -6 -6 -5 -5 -4 -4 -3 -3 -2 -2 -2 -2 -2 -2 -2 -2 -2 -3 -2 -3 -3 -4 -4 -3 -4 -1 -1 -2 -3 -3 -3 -3 -3
-6 -6 -6 -6 -5 -5 -6 -5 -5 -4 -6 -6 -6 -6 -5 -5 -3 -3 -3 -3 -3 -2 -2 -2 -2 -3 -3 -2 -2 -2 -2 -2 -4 -3 -3 -2 -3 0 -2 -2 -2 -4 -4 -5 -4
-5 -5 -5 -5 -5 -4 -4 -4 -3 -5 -6 -6 -6 -6 -4 -4 -4 -4 -3 -3 -3 -3 -3 -3 -3 -3 -3 -3 -3 -2 -3 -2 -2 -3 -0 -3 -4 -2 -2 -3 -3 -4 -4 -4 -4
-4 -3 -3 -4 -4 -4 -3 -3 -6 -7 -6 -6 -6 -5 -4 -4 -4 -4 -4 -4 -3 -3 -2 -3 -3 -3 -3 -3 -3 -2 -3 -3 -1 1 1 -3 -2 -2 -2 -3 -3 -3 -4 -4 -4
-2 -3 -2 -3 -3 -3 -2 -3 -6 -6 -6 -6 -5 -4 -5 -4 -4 -4 -4 -4 -3 -3 -3 -3 -2 -2 -2 -3 -3 -3 -3 -3 -3 -3 -2 -0 -2 -2 -2 -3 -3 -3 -3 -3 -4
-2 -2 -1 -2 -1 -1 -1 -4 -5 -5 -4 -4 -4 -4 -5 -4 -4 -3 -3 -4 -3 -3 -3 -3 -2 -2 -2 -3 -3 -3 -4 -3 -3 -1 1 1 -1 -2 -2 -2 -3 -3 -3 -4 -4
-1 -1 -1 -1 -1 0 -2 -4 -4 -4 -3 -3 -3 -3 -3 -3 -3 -3 -3 -3 -3 -3 -2 -2 -2 -1 -2 -2 -3 -3 -3 -3 -4 -3 0 1 1 -1 -2 -3 -3 -3 -3 -3 -4
-1 -1 -2 -1 0 -2 -2 -3 -3 -3 -3 -3 -3 -3 -3 -3 -3 -3 -3 -3 -2 -2 -2 -2 -1 -1 -1 -1 -2 -2 -3 -3 -3 -1 -2 -2 0 -1 -1 -2 -2 -3 -3 -4 -4
0 -1 -1 -1 -2 -2 -2 -2 -3 -2 -2 -2 -2 -2 -2 -1 -2 -2 -1 -1 -2 -2 -2 -2 -2 -2 -1 -1 -1 -1 -2 -2 -2 -3 -2 -0 2 -1 -2 -2 -2 -2 -3 -3 -3
0 -1 -1 -1 -1 -1 -2 -2 -2 -2 -2 -1 -2 -1 -1 -1 -1 -1 -1 -1 -1 -2 -2 -1 -1 -1 0 -1 -1 -1 -1 -1 -2 -3 -1 -1 -0 -0 -1 -1 -2 -2 -2 -2 -2
1 -0 -1 -1 -1 -0 -0 -1 -1 -1 -1 -1 -1 -1 -1 -1 -1 -1 -1 -1 -1 -1 -2 -2 -2 -1 -1 -1 -1 -0 -0 -1 -1 -1 -2 -0 0 -0 -0 -1 -1 -1 -2 -2 -2
2 1 1 0 -0 -1 -0 -1 -1 -1 -1 -1 -0 -0 0 0 -0 -0 -1 -1 -1 -1 -2 -2 -2 -1 1 1 0 0 0 -0 -0 -0 0 0 1 0 -0 -1 -1 -1 -1 -2 -2
2 2 1 1 1 1 0 0 0 0 0 0 0 -0 -0 -0 -0 -0 -0 -0 -1 -1 -2 -2 -2 -2 -1 0 -0 -0 2 2 2 1 1 0 1 1 0 -0 -1 -2 -2 -2 -2
Height
3040 3040 3041 3041 3041 3042 3044 3046 3047 3051 3054 3059 3064 3070 3076 3079 3082 3086 3089 3093 3096 3098 3101 3103 3105 3108 3110 3112 3115 3117 3121 3121 3122 3123 3125 3127 3127 3127 3127 3127 3128 3128 3128 3129 3129
3032 3032 3033 3034 3034 3036 3038 3041 3043 3044 3047 3051 3056 3064 3072 3076 3080 3083 3087 3089 3092 3096 3099 3101 3104 3106 3109 3110 3113 3115 3119 3119 3120 3122 3123 3125 3124 3124 3126 3124 3126 3125 3126 3124 3124
3025 3024 3025 3026 3029 3030 3032 3035 3037 3040 3041 3044 3051 3058 3065 3073 3077 3078 3082 3086 3089 3092 3096 3099 3102 3104 3107 3109 3111 3113 3115 3117 3118 3120 3120 3121 3121 3121 3120 3120 3123 3121 3121 3120 3120
3019 3019 3020 3022 3023 3025 3026 3030 3033 3036 3037 3039 3045 3053 3061 3068 3076 3075 3078 3083 3087 3090 3094 3097 3100 3103 3105 3107 3110 3113 3113 3114 3117 3117 3116 3117 3118 3117 3116 3120 3117 3116 3114 3114 3114
3015 3015 3016 3017 3018 3020 3022 3024 3027 3030 3033 3035 3040 3048 3056 3064 3068 3070 3075 3080 3084 3088 3091 3094 3098 3101 3104 3105 3108 3109 3111 3112 3113 3113 3112 3111 3113 3112 3113 3112 3110 3109 3106 3105 3105
3010 3011 3012 3013 3015 3017 3019 3020 3023 3026 3030 3032 3036 3043 3052 3061 3062 3068 3074 3077 3081 3085 3089 3092 3096 3099 3101 3103 3107 3107 3108 3108 3109 3109 3107 3107 3109 3107 3108 3104 3102 3100 3099 3098 3097
3006 3008 3010 3011 3012 3014 3015 3016 3019 3023 3026 3030 3034 3040 3049 3056 3061 3067 3073 3074 3079 3084 3087 3091 3094 3097 3099 3102 3103 3104 3106 3105 3106 3105 3103 3102 3103 3102 3100 3097 3095 3094 3094 3092 3090
3000 3004 3008 3010 3011 3012 3013 3014 3017 3022 3023 3028 3033 3040 3047 3049 3059 3064 3071 3074 3078 3082 3086 3090 3093 3095 3098 3100 3101 3102 3103 3104 3103 3101 3099 3100 3099 3098 3095 3092 3091 3088 3086 3084 3084
2997 3001 3005 3008 3010 3010 3011 3012 3015 3019 3023 3028 3034 3037 3045 3046 3054 3063 3070 3075 3078 3081 3085 3088 3091 3094 3096 3098 3100 3099 3100 3101 3100 3098 3097 3097 3095 3094 3091 3088 3085 3083 3081 3079 3077
3000 3002 3003 3006 3007 3008 3010 3014 3014 3018 3022 3028 3034 3039 3043 3048 3053 3063 3068 3073 3078 3081 3084 3087 3090 3092 3094 3095 3097 3097 3098 3097 3097 3095 3094 3092 3090 3090 3086 3084 3081 3077 3074 3072 3070
3003 3003 3004 3006 3006 3007 3010 3011 3016 3021 3021 3030 3033 3038 3043 3048 3056 3062 3068 3073 3077 3080 3082 3086 3089 3090 3091 3093 3094 3095 3095 3095 3094 3091 3091 3087 3085 3084 3082 3080 3078 3073 3070 3067 3065
3006 3005 3005 3006 3005 3006 3009 3010 3013 3016 3023 3030 3033 3038 3045 3051 3056 3063 3069 3075 3077 3079 3081 3086 3087 3088 3090 3091 3093 3093 3093 3093 3091 3089 3087 3083 3079 3077 3077 3076 3074 3071 3067 3064 3061
3011 3009 3007 3007 3005 3006 3007 3010 3014 3021 3026 3033 3036 3042 3048 3055 3058 3064 3070 3073 3077 3079 3081 3084 3086 3087 3089 3090 3091 3092 3092 3090 3089 3086 3084 3082 3074 3073 3072 3069 3068 3066 3064 3061 3058
3015 3013 3009 3007 3008 3008 3010 3014 3020 3025 3030 3041 3043 3049 3053 3057 3063 3067 3071 3076 3077 3080 3082 3084 3086 3087 3088 3089 3090 3091 3089 3088 3087 3087 3088 3084 3079 3072 3067 3066 3064 3063 3063 3059 3056
3022 3017 3015 3013 3013 3016 3019 3024 3028 3030 3036 3051 3051 3054 3057 3061 3067 3070 3073 3076 3078 3079 3083 3085 3085 3086 3087 3087 3088 3089 3088 3087 3086 3086 3085 3082 3082 3070 3065 3064 3063 3061 3059 3054 3051
3030 3028 3026 3025 3025 3027 3028 3029 3031 3035 3047 3055 3056 3058 3061 3065 3068 3071 3074 3078 3079 3080 3081 3083 3084 3086 3085 3085 3086 3087 3087 3084 3083 3084 3083 3078 3080 3068 3062 3064 3061 3057 3054 3050 3047
3035 3033 3032 3032 3034 3033 3034 3035 3036 3038 3055 3061 3061 3062 3064 3068 3071 3074 3077 3078 3079 3082 3082 3083 3084 3084 3084 3085 3086 3086 3084 3085 3084 3084 3078 3076 3075 3067 3063 3061 3057 3053 3051 3048 3045
3038 3037 3037 3037 3037 3037 3038 3039 3039 3052 3054 3061 3063 3067 3068 3071 3075 3076 3078 3079 3079 3080 3081 3082 3085 3084 3085 3086 3086 3085 3086 3088 3082 3076 3075 3074 3070 3066 3061 3057 3053 3051 3048 3046 3044
3044 3042 3042 3041 3041 3042 3042 3041 3052 3058 3062 3064 3068 3070 3071 3073 3076 3078 3079 3080 3080 3080 3081 3082 3085 3085 3086 3086 3087 3086 3086 3086 3084 3079 3076 3068 3066 3062 3059 3054 3051 3048 3046 3043 3041
3050 3048 3049 3050 3048 3049 3045 3046 3058 3063 3066 3068 3069 3071 3074 3076 3078 3078 3079 3081 3081 3081 3082 3084 3086 3086 3087 3087 3087 3085 3086 3085 3083 3078 3070 3064 3065 3061 3056 3053 3050 3047 3044 3043 3040
3061 3056 3060 3060 3061 3059 3047 3056 3065 3068 3069 3071 3072 3074 3076 3078 3079 3080 3083 3084 3083 3083 3083 3083 3085 3088 3086 3085 3085 3085 3083 3082 3081 3079 3073 3067 3062 3059 3056 3052 3050 3047 3045 3043 3041
3070 3064 3070 3071 3069 3059 3062 3066 3070 3072 3073 3075 3077 3078 3079 3080 3081 3082 3083 3083 3083 3083 3083 3083 3083 3083 3084 3083 3082 3082 3081 3080 3079 3078 3075 3073 3066 3060 3057 3053 3051 3049 3047 3046 3046
3075 3075 3077 3078 3070 3070 3072 3073 3074 3076 3077 3078 3080 3081 3081 3081 3083 3082 3083 3084 3084 3084 3084 3083 3082 3082 3082 3083 3080 3079 3078 3076 3074 3074 3072 3070 3064 3060 3058 3055 3054 3052 3051 3051 3051
3084 3083 3084 3081 3078 3077 3078 3079 3079 3080 3081 3081 3082 3082 3082 3082 3083 3084 3084 3084 3084 3084 3084 3083 3082 3082 3081 3080 3079 3077 3075 3073 3072 3072 3069 3065 3063 3060 3059 3056 3055 3054 3053 3052 3051
3087 3087 3086 3086 3084 3083 3082 3083 3084 3084 3084 3084 3084 3084 3084 3085 3085 3086 3086 3085 3085 3085 3084 3083 3081 3080 3078 3076 3074 3073 3072 3070 3068 3067 3066 3062 3060 3059 3057 3056 3056 3055 3054 3053 3052
3092 3090 3091 3089 3088 3088 3088 3087 3088 3088 3088 3088 3088 3088 3087 3087 3088 3088 3087 3086 3086 3085 3084 3083 3081 3078 3073 3071 3070 3067 3066 3066 3064 3062 3060 3059 3057 3057 3056 3055 3054 3054 3053 3052 3051
3094 3094 3094 3093 3093 3093 3092 3092 3092 3091 3091 3091 3090 3090 3089 3088 3087 3087 3086 3085 3084 3084 3082 3081 3080 3078 3072 3070 3067 3063 3057 3058 3058 3058 3058 3056 3056 3054 3054 3053 3052 3051 3050 3049 3048
Wind_Speed
30 28 27 24 22 21 17 16 18 30 26 31 40 39 27 14 14 18 18 19 18 17 15 14 13 12 11 12 12 13 11 10 10 8 9 9 10 12 13 15 16 18 19 20 19
29 28 23 24 23 21 20 17 17 17 31 28 34 40 32 20 19 17 17 18 19 18 16 15 14 14 13 13 14 13 11 11 12 11 10 11 13 16 17 21 19 20 20 23 24
27 21 21 23 25 23 23 20 20 19 20 33 26 37 40 29 16 22 22 19 18 18 16 16 17 16 15 15 15 14 15 14 14 13 14 17 19 21 24 26 22 25 26 27 27
14 14 13 14 18 16 17 21 22 21 19 18 32 33 39 31 20 24 25 21 16 16 16 15 16 17 17 18 17 16 15 16 15 16 18 21 22 24 28 25 28 29 31 31 31
12 11 11 12 12 15 16 18 19 21 18 20 28 27 39 34 31 15 23 20 18 15 15 14 15 15 16 15 16 15 15 15 16 19 21 23 23 26 26 29 31 32 34 36 37
9 8 8 7 10 12 15 16 18 22 18 11 20 30 38 32 29 13 11 18 19 16 14 13 14 15 13 15 15 12 12 13 16 20 23 25 24 28 27 29 29 32 33 34 36
10 8 7 8 8 7 9 12 17 23 21 12 20 33 39 35 35 27 13 12 18 16 13 13 13 13 12 10 13 12 12 15 18 19 22 23 24 18 18 24 27 29 30 32 35
11 6 5 3 4 7 7 10 12 18 16 17 26 20 41 26 30 22 23 15 17 16 12 10 10 10 10 10 10 10 13 11 14 17 19 18 16 17 19 23 22 23 25 27 28
9 10 4 3 1 1 3 4 11 8 12 21 38 19 22 32 39 24 27 19 17 14 12 10 9 9 9 8 9 9 9 12 12 12 15 15 15 13 19 20 19 19 21 22 24
19 13 8 5 2 2 3 6 9 10 19 27 37 17 23 26 30 23 27 18 14 14 11 10 8 8 8 8 4 6 8 9 9 14 14 16 14 11 18 18 20 21 19 21 22
15 12 8 6 3 5 6 6 13 19 21 29 22 22 24 29 29 25 18 14 14 13 12 10 8 8 8 8 8 6 6 8 9 14 15 15 20 16 21 17 21 19 17 17 19
16 11 9 5 2 5 6 7 8 27 24 13 15 30 32 30 30 23 17 13 14 13 11 9 8 7 6 4 3 4 6 8 9 9 18 19 23 22 13 20 16 16 14 15 17
17 11 7 7 8 13 19 6 24 28 23 21 30 39 31 26 25 22 22 18 15 12 11 10 8 7 5 2 3 5 8 9 9 16 17 19 16 5 15 17 16 16 16 17 18
11 9 7 10 12 22 24 9 31 29 21 18 29 27 25 25 23 21 18 16 13 12 11 7 7 5 3 4 4 6 7 9 10 12 7 14 8 10 12 10 14 16 20 22 20
32 34 31 29 33 32 26 31 30 13 6 8 20 23 24 13 23 18 16 14 12 14 7 7 6 4 4 4 3 3 7 9 12 10 13 3 5 8 9 10 11 24 23 20 18
25 22 25 24 30 31 23 13 11 9 8 7 13 22 22 21 16 17 14 13 13 11 8 7 5 3 2 3 2 3 7 10 3 3 4 5 7 4 4 15 19 22 14 15 14
19 17 17 17 17 14 11 11 15 11 13 16 19 23 19 19 17 15 13 10 8 6 7 7 5 5 4 4 2 3 8 4 1 1 4 5 6 8 14 19 24 16 12 12 10
25 19 17 16 11 9 10 15 15 11 18 23 23 21 23 20 15 13 12 11 8 7 8 4 3 4 4 2 1 4 3 2 4 3 7 7 5 5 15 24 16 11 13 13 11
26 22 17 15 13 18 28 23 14 19 24 24 21 16 12 10 11 10 11 7 5 5 3 4 4 7 7 7 2 0 2 6 5 7 6 3 5 9 19 17 12 11 13 14 14
29 28 24 24 27 29 39 38 28 26 21 11 7 11 10 11 7 6 6 5 7 7 5 6 5 2 1 2 1 1 3 2 4 3 4 3 3 8 19 17 11 10 6 6 7
31 35 27 28 27 29 43 34 22 17 15 13 14 14 13 12 11 9 6 8 8 7 6 5 4 2 3 4 4 1 2 2 5 3 3 5 2 15 16 13 9 4 5 5 7
27 32 20 19 25 37 34 30 25 22 20 17 15 14 12 12 10 7 7 6 6 6 4 3 2 2 4 5 5 6 5 6 4 2 5 3 5 13 11 11 9 8 12 17 17
26 24 17 13 32 32 28 25 23 16 14 13 11 13 11 10 7 8 7 6 5 4 3 4 2 3 1 1 3 6 7 7 5 7 6 3 2 7 4 8 9 11 13 12 10
18 17 16 20 22 23 21 20 20 17 15 14 14 12 12 11 8 6 6 4 4 3 4 4 4 5 4 5 8 8 8 9 5 4 3 11 8 4 2 2 4 6 5 5 5
16 18 15 16 19 18 18 15 14 14 12 10 11 9 8 7 8 6 3 2 1 3 5 6 6 9 11 13 15 14 12 13 14 10 8 7 10 8 6 5 4 3 2 1 2
15 14 15 15 15 14 13 13 13 12 11 9 7 6 5 6 4 2 2 2 3 4 5 7 7 14 17 11 13 19 18 18 18 18 17 14 14 10 10 10 8 8 8 7 7
12 13 12 13 12 11 11 10 9 8 7 7 6 6 4 3 4 6 8 9 9 8 8 8 7 12 6 8 16 18 10 18 19 17 13 16 10 10 12 12 11 12 11 11 12
Wind_Direction
283 275 278 278 267 271 254 243 249 235 230 226 215 220 215 229 227 226 224 224 223 219 214 211 210 209 207 208 211 206 208 229 234 233 242 243 251 260 264 265 265 262 259 259 255
276 279 275 256 257 260 254 243 245 253 231 227 221 211 209 214 228 230 226 227 220 218 218 213 213 213 215 217 217 216 217 236 244 249 253 255 259 265 271 272 273 274 276 268 260
287 281 263 253 253 258 253 247 246 234 250 222 220 210 205 213 226 223 221 224 218 212 215 217 216 212 217 219 224 229 231 244 252 257 259 265 267 272 273 272 282 282 277 273 271
291 291 273 259 254 251 257 242 243 239 242 239 206 209 203 201 216 214 206 209 210 209 208 211 213 215 215 219 228 237 242 252 259 264 263 265 270 274 272 289 282 281 276 272 268
267 270 273 270 272 253 243 241 236 230 220 235 209 200 199 209 222 199 206 208 207 209 208 210 214 215 219 225 234 241 249 257 266 273 276 278 282 285 290 288 284 280 278 276 274
254 257 260 266 264 252 242 246 233 227 208 239 217 191 198 208 215 159 179 203 204 206 210 213 213 214 220 228 235 245 251 265 273 278 283 286 292 292 296 286 281 280 280 279 277
229 235 232 265 265 257 257 246 241 229 204 222 206 186 194 208 221 223 206 193 195 197 202 204 203 207 217 230 242 252 267 275 278 282 284 292 296 302 286 280 284 287 287 286 286
268 226 245 271 279 260 257 239 244 231 200 196 184 170 193 186 199 207 207 188 174 179 182 191 198 209 220 235 252 265 275 273 276 282 286 298 294 296 290 295 299 296 293 290 289
198 211 170 163 253 110 211 253 183 237 191 188 174 162 177 161 191 180 183 178 168 164 173 187 201 215 227 242 262 267 261 274 280 277 294 299 306 301 299 304 305 306 305 301 295
71 79 87 101 88 115 192 210 172 190 180 168 177 143 174 165 165 176 174 168 173 174 178 188 200 217 229 239 230 249 266 271 285 293 301 293 299 294 304 298 304 308 309 308 303
66 63 65 77 92 202 178 183 161 158 161 152 182 195 154 167 164 161 155 166 170 175 179 186 193 213 232 238 241 247 265 293 295 299 301 295 294 295 301 288 304 306 301 303 303
57 70 66 63 237 214 144 170 196 163 156 135 154 172 165 160 161 160 175 176 177 174 170 177 190 203 212 204 209 250 298 300 304 297 310 303 301 294 275 309 301 308 303 306 300
46 60 59 52 97 119 136 105 142 152 128 128 143 145 149 157 159 163 164 172 167 162 165 176 173 172 165 211 268 297 292 303 310 312 316 319 305 267 285 306 310 316 309 308 307
62 74 89 94 114 123 138 131 143 131 90 94 122 137 147 162 144 148 156 158 156 158 155 158 170 173 204 250 287 305 303 313 314 331 310 317 294 291 308 300 308 312 311 296 297
77 73 74 75 103 110 115 123 113 97 76 65 99 124 131 129 133 139 144 148 153 155 156 152 158 173 244 267 282 259 307 306 308 304 303 258 257 278 304 320 300 307 303 295 285
54 62 70 90 106 111 99 88 78 81 68 76 97 109 116 129 133 135 135 140 134 138 135 149 169 197 231 303 326 293 309 321 297 289 265 241 213 267 339 314 315 314 309 308 302
54 68 83 101 127 113 80 87 87 59 99 106 112 121 123 128 130 127 126 128 135 129 145 123 101 96 75 53 39 324 345 359 310 237 262 206 238 279 313 315 317 313 306 307 313
60 72 94 110 110 104 100 94 69 78 114 126 121 124 121 121 118 115 111 102 105 117 131 113 87 92 64 64 192 336 316 282 287 294 316 253 243 281 325 318 313 298 296 296 300
68 74 88 95 107 116 118 98 100 111 120 117 116 114 107 111 124 106 91 96 98 99 110 102 107 100 88 51 45 76 290 276 274 271 267 239 281 315 335 341 324 306 289 297 296
71 79 88 95 111 119 108 97 104 108 115 109 91 111 109 114 109 103 84 83 91 76 101 69 114 162 254 287 277 99 338 284 221 301 302 264 291 305 337 344 333 341 337 334 348
83 84 88 100 105 108 94 97 102 104 103 93 102 113 106 95 104 92 106 104 99 80 80 70 105 191 250 211 228 296 264 320 263 236 298 314 341 336 340 342 350 22 64 53 61
84 82 78 101 101 89 91 95 96 96 96 96 95 101 106 108 90 95 116 115 77 55 48 8 252 227 220 247 272 296 260 324 241 196 254 272 295 331 353 38 56 70 93 98 109
76 81 75 93 89 91 93 93 89 95 96 97 99 97 100 104 98 88 86 90 89 77 36 11 6 339 273 308 235 265 277 312 287 252 240 273 346 312 10 71 82 93 100 102 88
78 88 80 78 81 85 86 86 93 92 91 93 91 91 89 83 93 106 99 83 70 36 358 335 283 252 262 272 266 262 278 292 281 222 245 254 275 266 223 118 110 111 105 91 80
70 69 72 76 76 82 89 88 86 88 86 86 76 82 88 85 91 92 80 57 7 343 331 317 284 288 292 282 271 265 261 271 273 268 245 277 264 259 237 221 221 228 220 257 322
61 66 54 57 64 65 68 74 75 77 76 75 69 68 55 66 66 24 337 310 267 309 320 307 287 310 313 283 275 273 267 256 259 260 262 264 267 251 251 248 246 256 269 279 291
62 63 64 60 53 57 61 69 68 68 66 61 55 45 20 357 324 303 294 284 276 281 295 297 299 319 287 297 298 287 267 244 248 247 254 255 281 275 266 259 259 262 268 278 287